Regional Weather Roundup
Issued by NWS State College, PA

Home | Current Version | Previous Version | Text Only | Print | Product List | Glossary On
Versions: 1 2 3 4 5 6 7 8 9 10 11 12 13 14 15 16 17 18 19 20 21 22 23 24 25 26 27 28 29 30 31 32 33 34 35 36 37 38 39 40 41 42 43 44 45 46 47 48 49 50
270
ASUS41 KCTP 080610
RWRCTP

REGIONAL WEATHER ROUNDUP
NATIONAL WEATHER SERVICE STATE COLLEGE PA
100 AM EST MON FEB 08 2016

Note: "fair" indicates few or no clouds below 12,000 feet with no
significant weather and/or obstructions to visibility.

* = STATION THAT DOES NOT REPORT PRECIPITATION /E.G. RAIN...SNOW...ETC/
    THUNDER OR FOG.

PAZ002>004-007>009-013>016-020>023-029>032-080700-
WESTERN PENNSYLVANIA

CITY           SKY/WX    TMP DP  RH WIND       PRES   REMARKS
ERIE           CLOUDY    42  23  46 S12       29.76F
MEADVILLE      CLOUDY    36  22  56 SE3       29.76F
FRANKLIN*      CLOUDY    36  21  55 SE9       29.79F
NEW CASTLE     FAIR      36  23  59 S3        29.78F
BEAVER COUNTY  NOT AVBL
BUTLER*        CLEAR     36  21  55 SE5       29.83F
PITTSBURGH INT PTCLDY    34  22  61 S5        29.79F
PITTSBURGH     CLEAR     38  23  55 S7        29.79F
INDIANA*       CLOUDY    32  27  80 CALM      29.83F
LATROBE        MOCLDY    32  27  80 CALM      29.82F
WASHINGTON CO* CLEAR     28  25  86 CALM      29.79F
$$

PAZ004>006-010>012-017>019-024>028-033>037-041-042-045-046-049>053-080700-
CENTRAL PENNSYLVANIA

CITY           SKY/WX    TMP DP  RH WIND       PRES   REMARKS
BRADFORD       CLEAR     28  22  78 CALM      29.78F
DUBOIS         CLOUDY    34  23  64 SE5       29.79F
CLEARFIELD     CLOUDY    27  22  81 N6        29.82F
JOHNSTOWN      CLOUDY    33  19  56 SW3       29.78F
ALTOONA        CLOUDY    28  21  75 CALM      29.82F
STATE COLLEGE  CLOUDY    30  23  75 CALM      29.83F
WILLIAMSPORT   CLOUDY    30  22  72 CALM      29.88F
SELINSGROVE    CLOUDY    25  22  88 CALM      29.87F
FT INDIANTOWN  CLOUDY    29  25  87 NE3       29.84F
CAPITAL CITY   CLOUDY    27  20  75 W3        29.85F
HARRISBURG     CLOUDY    30  24  78 NW6       29.85F
YORK           PTCLDY    25  22  88 CALM      29.84F
$$

PAZ038>040-043-044-047-048-054-055-060>062-067>071-080700-
EASTERN PENNSYLVANIA

CITY           SKY/WX    TMP DP  RH WIND       PRES   REMARKS
SCRANTON       PTCLDY    35  19  52 E5        29.86F
MOUNT POCONO   CLOUDY    32  17  54 E12       29.81F
ALLENTOWN      CLOUDY    33  20  58 NE6       29.86F
QUAKERTOWN*    CLOUDY    36  21  55 NE6       29.85F
READING        CLOUDY    35  20  54 NE6       29.84F
LANCASTER      CLOUDY    33  22  63 NE5       29.84F
COATESVILLE    MOCLDY    36  23  60 NE7       29.83F
POTTSTOWN      MOCLDY    35  21  56 N7        29.85F
BLUE BELL        N/A     34  23  64 CALM      29.82F
DOYLESTOWN     MOCLDY    35  21  56 NE9       29.83F
WILLOW GROVE   NOT AVBL
NORTH PHILA    CLOUDY    39  25  57 NE14      29.83F
PHILADELPHIA   CLOUDY    40  24  53 NE15      29.82F
$$




USA.gov is the U.S. government's official web portal to all federal, state and local government web resources and services.